Wetbulb
70.89 72.90 75.25 75.80 76.38 77.10 78.07 78.06 78.08 78.14 78.06 78.09 77.95 77.52 77.27 77.20 77.13 76.87 76.53 76.41 76.35 76.26 76.01 75.65 75.52 75.48 75.83 75.50 75.00 74.65 74.59 74.43 73.83 74.26 74.94 75.02 75.27 75.51 75.47 74.49 75.04 73.61 75.16
71.69 73.06 75.20 75.75 77.45 77.27 77.52 77.71 77.56 77.62 77.42 77.42 77.45 77.33 77.03 77.19 77.20 76.72 76.43 76.47 76.12 75.91 76.00 75.68 75.27 75.40 75.53 75.68 75.51 75.02 74.48 74.57 73.75 73.03 74.46 74.75 75.04 75.33 75.16 74.39 75.22 74.78 74.35
71.28 72.75 73.67 76.49 77.29 77.07 77.37 77.58 77.23 76.83 76.72 76.80 76.96 77.06 77.17 76.83 76.63 76.42 76.29 76.13 76.02 76.08 75.95 75.73 75.73 75.31 75.20 75.17 75.00 74.86 74.78 74.63 73.84 73.30 74.41 72.57 73.38 75.08 75.02 74.78 75.20 74.95 75.00
72.12 72.85 73.06 76.73 77.49 77.00 77.13 77.60 77.48 76.69 76.71 76.84 77.03 77.13 77.01 76.83 76.59 76.13 75.86 75.61 75.56 75.42 75.26 75.37 75.26 75.34 75.20 75.00 74.73 74.62 74.43 74.35 74.33 73.37 72.79 73.43 73.69 75.75 75.05 74.39 75.04 74.60 74.57
71.67 72.43 73.35 77.22 77.82 76.87 76.95 77.16 77.57 77.58 76.96 77.17 77.21 76.99 76.85 76.51 76.21 75.89 75.61 75.56 75.69 75.55 75.33 74.93 74.71 74.71 74.77 74.16 74.55 74.21 74.27 74.73 74.74 72.90 71.92 73.08 74.06 74.85 74.37 73.50 73.95 74.42 74.70
71.81 73.02 75.23 76.92 76.93 76.86 77.21 77.09 77.42 76.99 76.63 76.55 76.82 76.83 76.48 76.21 76.00 75.78 75.70 75.70 75.50 75.94 75.65 75.26 75.21 74.90 74.63 74.35 74.21 74.16 75.13 75.56 75.98 72.36 71.51 74.13 73.51 75.35 74.18 75.27 75.01 75.32 74.96
71.66 72.96 74.45 77.45 77.27 77.08 76.85 77.07 76.91 76.91 76.71 76.46 76.42 76.61 76.29 76.00 75.70 75.51 75.38 75.54 75.76 76.01 75.49 75.13 75.13 74.94 74.85 74.58 74.44 75.76 75.52 75.30 72.86 72.21 72.51 73.10 72.77 75.63 75.15 75.07 74.78 74.75 74.92
71.94 73.19 73.88 76.62 77.04 76.76 76.81 76.61 76.52 76.80 76.79 76.62 76.26 76.37 76.35 75.73 75.40 74.94 74.88 75.27 75.74 75.58 75.58 75.11 74.69 74.61 74.72 74.94 74.64 75.38 75.73 74.86 73.13 72.69 72.46 72.64 74.37 75.41 75.10 74.69 73.86 73.96 75.12
73.25 73.11 73.51 73.48 74.95 76.49 76.53 76.56 76.59 76.55 76.74 76.65 76.55 76.23 76.26 75.81 75.13 74.91 74.86 75.19 75.30 75.08 75.21 75.11 75.11 74.75 74.80 75.10 75.02 75.56 75.10 74.12 71.95 72.79 72.36 73.00 75.12 75.92 75.13 74.31 74.57 72.81 74.71
72.65 73.13 73.22 73.55 73.48 73.51 74.08 76.40 76.38 76.42 76.52 76.60 76.36 75.78 75.91 75.84 75.30 75.16 76.42 75.44 75.93 75.13 74.90 75.19 74.91 75.05 75.38 75.60 75.32 75.05 73.57 73.29 69.85 71.52 73.10 73.50 75.47 75.08 75.30 74.87 74.55 73.43 74.50
72.17 72.25 73.05 73.27 73.03 73.76 73.97 74.96 76.55 76.45 76.47 76.36 75.94 76.21 76.19 74.80 74.50 75.16 75.53 76.45 76.41 75.40 75.71 74.66 75.52 75.47 74.30 75.60 75.35 75.40 73.97 69.64 68.87 70.51 71.83 73.54 74.72 74.57 74.54 74.76 74.71 74.62 74.20
70.19 71.89 72.65 72.99 73.12 73.79 75.30 74.58 74.31 73.82 74.44 74.74 74.75 74.41 74.78 74.61 73.94 74.89 75.69 76.66 76.96 76.49 76.12 75.52 75.16 75.37 73.21 73.18 74.41 74.43 72.73 70.41 70.45 70.42 71.89 73.50 74.26 73.78 73.92 74.63 73.80 74.44 74.46
70.02 71.92 72.82 72.88 73.30 73.44 74.36 73.47 73.25 73.32 73.54 73.72 73.73 73.43 73.24 74.27 73.58 73.06 73.46 73.37 73.02 73.66 73.48 74.02 73.58 73.50 73.55 73.58 73.35 74.14 73.37 70.86 71.27 70.42 70.91 73.18 74.96 74.71 73.95 73.91 74.73 74.28 74.66
69.28 71.24 72.60 73.09 73.22 72.77 72.66 72.60 72.55 72.58 72.64 72.23 72.48 72.41 72.18 72.28 72.34 72.31 72.49 72.79 72.60 73.05 73.44 71.97 73.24 72.53 73.05 73.23 73.18 72.75 71.80 71.89 70.62 68.85 70.26 74.35 74.86 74.92 75.56 74.93 74.89 74.81 74.69
68.90 70.32 71.79 72.99 72.79 72.60 71.27 71.68 71.66 71.86 72.28 72.04 72.02 71.88 72.31 72.33 71.90 72.43 72.86 72.81 72.52 73.22 73.78 72.94 72.17 72.54 72.95 72.68 72.74 72.69 70.59 70.61 70.10 70.08 70.64 74.51 75.14 75.16 74.82 75.06 74.79 74.83 74.08
69.47 70.06 71.53 72.27 72.63 72.03 71.24 70.28 71.03 71.29 71.82 71.86 71.79 71.73 72.09 73.05 72.22 72.16 72.56 72.66 72.54 72.87 73.75 72.93 73.13 72.99 72.15 71.84 71.40 72.66 71.20 70.29 70.44 70.39 71.86 71.37 74.66 75.13 75.03 74.37 74.53 74.63 74.69
69.88 70.57 71.02 71.59 72.22 71.18 70.34 69.96 70.16 70.80 71.90 71.87 72.14 72.43 72.87 73.08 72.62 73.12 72.61 72.32 72.40 72.55 73.19 73.01 72.54 71.77 68.50 66.49 66.55 70.43 71.84 71.82 71.93 70.92 71.84 71.86 72.07 75.05 74.96 75.92 74.88 75.14 74.90
70.25 70.17 70.92 72.20 71.61 70.84 70.13 69.94 70.59 70.81 71.32 72.28 73.23 73.33 73.18 73.38 73.10 72.49 72.29 72.08 72.75 72.91 72.99 71.99 71.46 69.93 66.60 65.62 66.53 65.35 66.26 70.84 71.71 71.69 71.86 72.08 72.08 72.72 73.97 74.67 74.52 75.55 74.55
70.24 70.16 70.26 71.14 70.91 70.78 70.25 70.42 70.84 71.19 71.65 72.08 72.16 73.00 73.02 73.38 73.25 72.50 71.99 72.05 73.20 72.53 72.09 71.60 70.94 68.85 65.40 65.97 66.75 65.64 65.92 66.67 66.92 67.65 70.84 72.38 72.20 72.71 72.57 73.01 75.03 74.62 73.39
70.14 70.52 70.24 71.15 70.95 71.01 70.86 70.76 71.38 71.01 71.14 71.38 71.35 71.77 72.95 73.16 73.66 72.64 72.50 72.41 73.33 72.73 71.45 70.97 69.74 67.17 65.45 65.68 63.75 63.84 66.03 65.85 67.55 67.80 69.00 70.62 70.98 70.64 72.47 73.00 73.85 73.72 74.16
69.62 69.56 69.41 69.93 70.18 70.47 70.48 70.12 70.33 69.85 70.35 71.33 72.55 72.87 72.86 73.28 74.55 73.59 73.28 72.86 73.01 72.40 72.06 71.11 67.62 66.47 64.47 64.89 63.48 63.28 65.36 65.71 66.07 66.40 69.21 70.67 71.44 71.84 72.16 72.21 72.40 72.61 72.91
68.49 69.19 69.46 69.58 70.09 70.15 70.81 71.10 71.36 71.21 70.51 71.65 72.79 72.53 72.93 73.52 74.17 73.54 72.91 72.37 72.79 71.37 70.97 69.99 67.52 64.94 64.75 64.56 62.15 61.88 62.07 64.55 65.95 65.70 66.88 69.77 69.90 70.58 70.60 70.88 71.37 71.73 72.18
68.49 68.86 69.39 69.68 70.05 70.64 70.86 71.02 70.81 71.00 71.15 70.64 71.26 72.03 71.90 73.23 73.90 74.66 73.77 72.06 72.28 71.91 70.31 69.21 66.53 65.33 64.41 64.06 63.74 63.85 60.60 60.43 63.00 65.19 64.94 68.04 68.80 68.44 67.71 69.83 70.72 70.70 70.57
69.01 69.57 69.69 70.04 70.42 70.71 70.98 70.63 70.21 70.00 69.55 70.16 70.35 71.67 72.73 73.28 73.46 73.99 73.35 72.54 72.03 71.02 70.31 68.55 66.50 65.47 64.19 64.04 65.04 64.40 63.29 63.62 62.03 61.62 64.03 64.99 65.27 66.74 66.09 66.24 69.70 70.48 69.27
69.39 69.33 69.35 69.86 70.37 70.61 70.73 70.91 70.34 70.14 70.12 70.11 70.67 71.19 71.34 72.91 73.61 73.64 73.35 72.79 71.86 70.73 70.48 68.32 66.81 65.73 63.24 63.75 64.60 64.05 63.64 62.62 61.91 61.92 60.17 62.63 64.10 64.44 65.71 64.53 65.72 70.11 69.45
69.28 69.61 69.37 69.48 69.88 70.54 70.36 70.59 70.23 70.01 69.25 69.18 69.43 69.96 70.88 71.82 72.55 73.22 73.45 72.87 72.43 71.33 69.85 68.42 67.32 66.29 64.65 65.04 65.08 64.53 63.61 63.19 62.25 61.41 60.39 60.52 62.19 63.56 63.97 64.78 64.18 65.83 69.77
MSLP
1014.81 1014.68 1014.57 1014.51 1014.62 1014.74 1014.89 1015.16 1015.47 1015.67 1015.82 1015.99 1016.23 1016.40 1016.57 1016.86 1017.03 1017.11 1017.19 1017.22 1017.22 1017.24 1017.19 1017.20 1017.22 1017.34 1017.40 1017.46 1017.51 1017.58 1017.67 1017.78 1017.94 1017.95 1017.99 1018.11 1018.14 1018.26 1018.36 1018.53 1018.70 1018.78 1018.74
1014.68 1014.94 1014.98 1015.09 1014.95 1015.07 1015.35 1015.49 1015.72 1015.97 1016.07 1016.29 1016.54 1016.66 1016.94 1017.09 1017.22 1017.32 1017.36 1017.32 1017.36 1017.37 1017.43 1017.46 1017.53 1017.55 1017.62 1017.62 1017.72 1017.82 1017.89 1017.93 1018.02 1018.10 1018.18 1018.29 1018.31 1018.34 1018.53 1018.67 1018.80 1018.86 1019.00
1015.02 1015.24 1015.39 1015.39 1015.38 1015.54 1015.70 1015.89 1016.10 1016.23 1016.43 1016.65 1016.90 1017.06 1017.24 1017.36 1017.46 1017.51 1017.52 1017.53 1017.56 1017.60 1017.62 1017.68 1017.72 1017.81 1017.89 1017.90 1017.87 1017.97 1018.02 1018.10 1018.14 1018.27 1018.35 1018.39 1018.44 1018.53 1018.61 1018.81 1018.98 1019.04 1019.16
1015.05 1015.45 1015.70 1015.64 1015.72 1015.94 1016.06 1016.18 1016.41 1016.59 1016.74 1016.95 1017.16 1017.36 1017.47 1017.56 1017.66 1017.75 1017.79 1017.80 1017.87 1017.90 1017.91 1017.98 1018.01 1018.03 1018.05 1018.08 1018.08 1018.11 1018.22 1018.25 1018.34 1018.51 1018.71 1018.50 1018.47 1018.61 1018.83 1018.98 1019.14 1019.25 1019.45
1015.39 1015.66 1015.87 1015.90 1016.02 1016.20 1016.35 1016.57 1016.81 1016.89 1017.08 1017.26 1017.42 1017.53 1017.60 1017.73 1017.85 1018.00 1018.09 1018.07 1018.01 1018.02 1018.07 1018.17 1018.23 1018.24 1018.31 1018.23 1018.29 1018.33 1018.34 1018.40 1018.47 1018.80 1019.04 1018.94 1018.84 1018.86 1019.07 1019.26 1019.34 1019.50 1019.70
1015.61 1015.84 1016.03 1016.07 1016.20 1016.42 1016.69 1016.95 1017.10 1017.28 1017.46 1017.56 1017.59 1017.65 1017.79 1017.95 1018.09 1018.23 1018.28 1018.23 1018.15 1018.16 1018.23 1018.33 1018.35 1018.41 1018.41 1018.41 1018.37 1018.31 1018.24 1018.34 1018.45 1018.85 1019.17 1019.16 1019.12 1019.08 1019.35 1019.44 1019.54 1019.68 1019.91
1015.85 1016.06 1016.17 1016.23 1016.41 1016.66 1016.97 1017.18 1017.33 1017.49 1017.58 1017.65 1017.75 1017.90 1018.06 1018.14 1018.25 1018.37 1018.40 1018.35 1018.32 1018.23 1018.31 1018.41 1018.44 1018.50 1018.53 1018.44 1018.47 1018.40 1018.32 1018.46 1018.78 1019.06 1019.25 1019.45 1019.42 1019.26 1019.45 1019.62 1019.74 1019.93 1020.15
1015.97 1016.17 1016.33 1016.47 1016.69 1016.94 1017.15 1017.32 1017.51 1017.58 1017.67 1017.79 1017.98 1018.12 1018.26 1018.28 1018.45 1018.50 1018.50 1018.49 1018.48 1018.43 1018.44 1018.54 1018.56 1018.56 1018.48 1018.57 1018.62 1018.61 1018.59 1018.72 1019.02 1019.29 1019.55 1019.67 1019.64 1019.52 1019.73 1019.92 1019.93 1020.14 1020.33
1016.04 1016.23 1016.56 1016.74 1016.90 1017.12 1017.29 1017.47 1017.61 1017.69 1017.89 1018.05 1018.20 1018.28 1018.35 1018.47 1018.58 1018.61 1018.58 1018.57 1018.52 1018.47 1018.53 1018.56 1018.56 1018.52 1018.51 1018.58 1018.63 1018.76 1018.84 1019.00 1019.31 1019.56 1019.71 1019.87 1019.78 1019.69 1019.83 1020.10 1020.21 1020.46 1020.64
1016.30 1016.43 1016.75 1016.88 1017.07 1017.32 1017.44 1017.58 1017.69 1017.88 1018.07 1018.25 1018.37 1018.48 1018.52 1018.64 1018.65 1018.60 1018.59 1018.59 1018.51 1018.56 1018.55 1018.49 1018.54 1018.51 1018.50 1018.57 1018.74 1018.95 1019.08 1019.28 1019.52 1019.69 1019.88 1019.94 1019.84 1019.81 1019.99 1020.18 1020.42 1020.65 1020.89
1016.62 1016.76 1016.80 1016.94 1017.24 1017.45 1017.59 1017.71 1017.76 1018.02 1018.17 1018.34 1018.41 1018.46 1018.60 1018.76 1018.80 1018.74 1018.67 1018.56 1018.52 1018.56 1018.59 1018.64 1018.63 1018.61 1018.53 1018.57 1018.71 1018.92 1019.31 1019.65 1019.90 1019.98 1020.04 1020.06 1020.08 1020.01 1020.08 1020.30 1020.55 1020.78 1021.01
1016.55 1016.86 1016.88 1016.94 1017.29 1017.52 1017.58 1017.81 1017.94 1018.24 1018.34 1018.52 1018.60 1018.64 1018.77 1018.85 1018.91 1018.86 1018.77 1018.68 1018.61 1018.58 1018.54 1018.58 1018.72 1018.75 1018.75 1018.79 1018.84 1018.98 1019.40 1019.75 1019.96 1020.05 1020.04 1020.04 1020.06 1020.07 1020.25 1020.46 1020.69 1020.86 1021.18
1016.24 1016.76 1016.85 1016.86 1017.18 1017.48 1017.52 1017.84 1018.10 1018.34 1018.53 1018.65 1018.80 1018.83 1018.88 1018.90 1018.97 1018.90 1018.89 1018.83 1018.82 1018.81 1018.95 1018.80 1018.81 1018.97 1018.94 1018.97 1018.93 1019.02 1019.27 1019.63 1019.93 1019.98 1019.99 1020.06 1020.04 1020.07 1020.21 1020.50 1020.69 1020.93 1021.20
1016.08 1016.44 1016.62 1016.68 1017.05 1017.39 1017.62 1017.80 1018.10 1018.36 1018.57 1018.70 1018.82 1018.90 1018.98 1018.98 1018.93 1018.96 1018.87 1018.90 1018.92 1018.91 1018.95 1019.08 1019.04 1019.19 1019.19 1019.23 1019.19 1019.23 1019.39 1019.58 1019.83 1019.96 1019.97 1019.84 1020.00 1019.98 1020.10 1020.57 1020.73 1020.94 1021.16
1015.82 1016.11 1016.38 1016.55 1016.92 1017.21 1017.54 1017.77 1018.06 1018.25 1018.41 1018.64 1018.84 1018.82 1018.91 1019.03 1019.15 1019.00 1018.96 1018.96 1018.86 1018.86 1018.94 1019.08 1019.14 1019.23 1019.11 1019.23 1019.07 1019.16 1019.37 1019.57 1019.65 1019.73 1019.90 1019.83 1019.96 1020.03 1020.30 1020.40 1020.72 1020.90 1021.06
1015.31 1015.70 1016.12 1016.41 1016.59 1017.00 1017.31 1017.62 1017.77 1018.05 1018.29 1018.54 1018.57 1018.57 1018.67 1018.82 1019.01 1018.96 1019.01 1019.06 1019.09 1018.97 1018.94 1019.06 1019.01 1018.98 1019.17 1019.08 1019.04 1019.17 1019.34 1019.43 1019.49 1019.66 1019.92 1020.03 1019.98 1020.01 1020.13 1020.30 1020.63 1020.87 1021.08
1014.68 1015.20 1015.72 1016.07 1016.31 1016.84 1017.08 1017.45 1017.71 1017.83 1018.03 1018.16 1018.17 1018.17 1018.35 1018.60 1018.71 1018.75 1018.92 1019.08 1019.02 1019.13 1018.93 1019.12 1019.08 1019.13 1019.16 1019.36 1019.32 1019.18 1019.23 1019.35 1019.38 1019.51 1019.77 1019.86 1019.93 1019.94 1020.08 1020.23 1020.33 1020.70 1020.98
1014.29 1014.79 1015.34 1015.80 1016.25 1016.58 1016.92 1017.14 1017.40 1017.59 1017.72 1017.72 1017.69 1017.80 1018.09 1018.25 1018.45 1018.63 1018.85 1018.94 1018.85 1018.96 1019.05 1019.29 1019.35 1019.43 1019.49 1019.45 1019.77 1019.72 1019.47 1019.30 1019.30 1019.50 1019.60 1019.72 1019.97 1020.00 1020.04 1020.14 1020.35 1020.49 1020.70
1013.66 1014.19 1014.81 1015.42 1015.78 1016.20 1016.49 1016.83 1017.07 1017.27 1017.42 1017.32 1017.46 1017.45 1017.69 1017.91 1018.14 1018.45 1018.66 1018.77 1018.72 1018.83 1019.00 1019.26 1019.39 1019.51 1019.72 1019.89 1019.81 1019.75 1019.70 1019.58 1019.32 1019.30 1019.38 1019.53 1019.75 1019.89 1019.99 1020.08 1020.18 1020.36 1020.52
1013.09 1013.69 1014.30 1014.90 1015.34 1015.79 1016.22 1016.64 1016.85 1017.22 1017.17 1017.17 1017.22 1017.14 1017.28 1017.43 1017.68 1018.14 1018.41 1018.66 1018.61 1018.73 1019.03 1019.37 1019.63 1019.78 1019.98 1020.12 1020.07 1020.12 1020.11 1019.77 1019.42 1019.37 1019.40 1019.41 1019.59 1019.68 1019.81 1020.05 1020.18 1020.32 1020.50
1012.67 1013.25 1013.73 1014.36 1014.78 1015.37 1015.93 1016.45 1016.83 1016.99 1017.05 1016.99 1016.91 1016.73 1016.88 1017.10 1017.43 1017.82 1018.18 1018.32 1018.51 1018.72 1019.05 1019.41 1019.68 1019.83 1020.09 1020.18 1020.27 1020.42 1020.25 1020.07 1020.01 1019.92 1019.77 1019.77 1019.78 1019.89 1020.01 1020.19 1020.35 1020.48 1020.51
1011.62 1012.02 1012.86 1013.36 1013.98 1014.58 1015.02 1015.34 1015.83 1016.22 1016.41 1016.45 1016.39 1016.48 1016.57 1016.83 1017.11 1017.38 1017.69 1018.09 1018.27 1018.69 1019.11 1019.29 1019.51 1019.89 1020.07 1020.23 1020.52 1020.84 1020.76 1020.66 1020.44 1020.44 1020.33 1020.29 1020.34 1020.27 1020.38 1020.61 1020.74 1020.83 1020.88
1010.92 1011.29 1011.71 1012.21 1012.90 1013.69 1014.29 1015.02 1015.58 1015.92 1016.25 1016.53 1016.57 1016.56 1016.49 1016.57 1016.74 1016.97 1017.28 1017.73 1018.12 1018.44 1018.86 1019.19 1019.46 1019.80 1020.13 1020.38 1020.44 1020.55 1021.09 1021.04 1021.07 1020.89 1020.81 1020.72 1020.67 1020.72 1020.82 1020.88 1020.93 1021.03 1021.12
1009.54 1010.36 1011.05 1011.72 1012.28 1012.89 1013.57 1014.29 1014.74 1015.05 1015.65 1015.83 1015.88 1016.00 1016.14 1016.25 1016.46 1016.68 1017.02 1017.50 1017.93 1018.18 1018.58 1018.90 1019.26 1019.72 1020.03 1020.38 1020.50 1020.57 1020.59 1020.73 1021.11 1021.34 1021.13 1021.09 1020.98 1020.93 1020.99 1021.10 1021.08 1021.17 1021.34
1008.18 1009.13 1009.89 1010.71 1011.49 1012.13 1012.71 1013.13 1013.84 1014.37 1014.65 1014.93 1015.36 1015.62 1015.88 1015.98 1016.11 1016.25 1016.56 1017.09 1017.67 1017.88 1018.27 1018.70 1019.08 1019.50 1019.79 1020.05 1020.20 1020.46 1020.67 1020.81 1020.97 1021.19 1021.36 1021.26 1021.18 1021.01 1020.98 1021.10 1021.13 1021.14 1021.30
1007.81 1008.56 1009.46 1010.03 1010.39 1011.16 1011.95 1012.52 1013.06 1013.53 1013.95 1014.51 1015.05 1015.33 1015.61 1015.73 1015.88 1015.91 1016.22 1016.63 1016.96 1017.42 1017.97 1018.35 1018.79 1019.26 1019.50 1019.78 1019.99 1020.11 1020.18 1020.51 1020.82 1021.04 1021.41 1021.54 1021.37 1021.10 1021.02 1020.92 1021.05 1021.10 1021.20
Wind_Speed
3 6 15 13 15 17 18 18 17 17 17 18 17 16 16 14 13 13 11 10 10 10 10 10 10 10 10 11 11 11 10 10 9 9 11 10 10 11 12 12 11 10 12
7 5 14 14 16 17 17 17 16 16 17 17 16 16 15 14 13 11 10 10 9 10 10 10 10 9 9 10 9 8 9 9 8 9 10 9 9 11 12 12 10 10 12
6 6 10 14 17 16 16 15 15 16 16 15 15 15 14 13 12 10 9 8 8 9 9 9 10 8 7 8 8 7 7 6 9 9 8 3 5 11 12 11 12 12 12
8 5 7 15 16 16 15 14 14 15 15 14 14 13 12 11 11 10 8 7 7 8 8 7 7 7 6 6 5 5 5 6 7 9 3 4 9 12 12 11 11 11 11
7 6 9 16 16 16 15 14 14 14 14 12 12 12 11 10 9 8 7 6 6 6 6 5 5 5 5 3 3 2 3 5 7 7 3 3 3 10 11 11 10 10 10
6 6 14 17 17 16 14 14 14 13 13 11 11 10 9 8 7 6 5 5 4 5 5 5 4 4 4 2 0 2 5 6 10 7 4 4 3 11 12 11 11 11 11
6 5 9 15 15 15 14 13 13 12 11 10 9 8 7 6 5 4 3 3 4 5 5 6 6 5 4 2 2 6 6 7 6 6 5 3 2 9 11 11 11 10 9
8 5 6 14 14 14 14 13 12 11 10 9 8 7 6 4 3 2 2 3 4 4 5 5 4 4 3 3 2 4 6 9 7 6 4 3 4 8 9 9 10 9 11
5 6 5 6 11 14 13 12 11 10 9 8 7 6 5 3 2 0 1 3 3 3 3 2 1 1 2 1 4 6 7 10 5 3 5 3 7 10 11 9 9 8 8
4 5 6 5 5 5 5 12 11 9 8 7 5 4 4 3 2 2 2 4 4 3 2 2 0 1 2 3 4 8 8 9 4 4 3 3 5 9 10 10 10 9 8
5 4 5 5 5 5 5 6 10 10 8 7 5 5 3 1 2 3 4 5 4 3 4 2 2 3 4 4 2 7 11 2 3 2 2 5 4 7 8 8 7 10 9
10 6 5 5 5 5 5 3 4 3 2 2 2 2 1 2 3 3 4 6 7 6 6 5 1 4 2 1 1 2 2 4 3 2 2 7 8 8 8 8 7 6 8
11 9 8 6 5 6 4 3 2 2 1 1 2 2 3 2 2 2 2 2 2 4 2 4 3 2 1 1 2 1 2 3 1 1 2 6 9 10 10 8 10 7 9
11 12 10 8 7 5 3 3 3 2 2 2 2 4 2 2 3 3 2 2 2 2 2 2 0 1 1 2 3 3 1 2 2 1 3 8 11 9 9 9 9 10 8
12 12 11 10 8 7 5 3 3 4 3 3 3 4 3 3 2 2 2 2 2 2 1 2 2 1 1 1 3 3 1 2 2 1 1 5 8 9 8 9 10 9 8
14 13 11 11 9 7 7 5 5 3 3 3 4 4 5 3 3 2 2 3 2 3 1 1 1 1 1 2 2 3 2 4 3 2 1 3 10 10 8 7 8 9 10
13 13 13 12 9 8 7 5 4 4 4 5 4 6 6 5 4 3 2 3 3 3 2 1 1 1 2 1 2 2 2 3 3 3 2 3 4 7 8 7 7 9 10
12 13 12 11 11 9 7 5 4 4 4 5 5 4 6 6 5 4 3 3 3 2 2 1 1 1 1 3 1 2 2 3 1 3 5 4 3 3 5 7 8 8 9
13 13 13 12 12 11 8 5 5 5 5 5 3 4 6 7 6 5 3 3 3 2 2 2 0 2 2 2 2 3 3 1 2 0 3 4 4 4 3 5 6 7 7
14 12 12 11 11 11 8 5 3 3 4 3 4 5 6 6 7 6 4 4 3 3 2 2 1 2 2 1 2 3 3 3 3 3 2 2 1 3 4 3 2 2 5
13 12 13 13 12 9 7 6 3 6 4 3 4 5 6 5 6 6 4 4 3 3 2 3 1 1 1 1 2 2 3 5 5 4 3 2 4 3 2 1 1 1 2
17 17 16 16 14 12 9 8 5 6 3 4 3 4 5 6 7 6 6 5 4 3 3 3 3 1 1 1 2 1 2 3 3 5 3 3 4 3 4 4 4 4 3
18 18 18 19 17 14 13 6 3 3 2 2 2 3 4 6 8 7 6 4 4 3 3 3 4 4 2 1 1 3 2 2 0 2 3 2 2 2 2 2 2 3 3
20 17 17 16 16 15 14 11 12 10 9 6 5 5 6 7 7 6 6 6 5 3 4 4 3 3 3 3 1 1 2 2 2 1 1 2 2 1 1 1 0 1 2
21 19 18 17 16 15 15 16 12 11 8 5 4 8 5 5 6 7 7 6 6 4 4 6 5 4 3 3 2 2 1 1 2 2 2 2 2 3 3 2 2 2 3
16 16 15 17 17 16 16 17 16 16 10 7 5 6 5 5 5 7 6 7 6 5 6 6 5 5 4 3 2 2 3 3 3 2 2 1 2 2 2 3 3 3 3
Wind_Direction
142 152 153 132 117 106 103 104 106 105 104 104 105 106 106 110 108 102 103 102 93 88 76 85 100 103 105 101 103 105 111 106 108 113 114 117 118 106 111 104 106 116 107
135 155 151 131 116 109 109 108 107 106 105 106 109 107 111 112 108 107 109 100 98 90 85 78 94 98 107 111 109 110 119 118 118 122 124 129 134 120 110 108 106 105 112
123 142 143 137 122 118 114 112 112 111 112 110 109 112 114 114 115 109 98 95 92 87 84 82 84 94 106 113 121 129 133 133 107 125 119 124 149 130 116 115 109 109 108
118 119 137 135 128 126 121 119 118 117 114 114 117 122 123 123 116 107 101 92 83 80 80 81 87 96 101 111 124 137 142 131 117 122 96 91 123 122 116 115 106 103 108
109 117 140 139 133 131 129 126 126 126 121 124 127 128 126 120 114 111 105 98 89 92 90 87 88 96 98 96 115 147 168 170 148 117 85 98 109 119 116 118 117 111 112
115 114 146 146 139 139 137 137 134 128 130 134 134 128 123 121 120 112 104 93 83 69 75 89 97 94 99 102 110 257 193 196 182 134 110 117 104 128 124 128 119 115 105
125 135 152 148 148 147 145 143 140 135 139 142 138 131 128 131 128 119 101 74 49 53 73 79 84 86 97 110 90 126 122 127 130 130 131 138 159 141 138 125 114 115 119
144 153 155 151 154 156 155 154 149 148 152 151 143 141 138 136 129 117 59 26 27 52 70 75 75 91 108 93 98 109 113 108 112 124 136 150 182 151 135 127 126 122 126
154 142 136 154 170 166 165 162 161 163 164 162 157 155 152 160 157 134 342 351 10 12 30 61 68 32 7 72 121 129 114 125 110 123 141 162 228 148 136 140 135 135 138
149 138 147 165 171 165 175 173 174 175 176 177 171 166 177 196 204 275 323 323 334 337 343 323 17 39 25 344 136 119 128 119 120 130 156 191 183 150 151 159 150 149 132
165 164 151 166 168 170 185 189 187 186 192 194 195 204 215 253 285 312 317 327 323 326 346 37 14 8 29 359 202 137 121 114 107 147 168 202 199 170 163 147 164 167 156
180 182 177 173 170 174 189 197 172 199 204 192 207 256 284 273 284 288 307 319 343 330 357 324 18 45 52 346 316 73 109 143 148 174 187 191 191 179 175 166 170 173 159
178 184 188 185 181 179 191 165 172 183 211 227 222 254 280 283 287 297 294 313 325 329 356 338 43 56 130 273 317 318 114 147 191 190 176 197 193 190 178 186 177 191 178
177 188 188 190 189 187 166 177 177 190 200 223 220 227 229 265 277 279 288 307 315 331 326 340 341 58 49 234 260 291 333 161 161 214 237 195 196 210 199 184 198 184 195
186 191 192 187 189 189 181 176 182 203 206 208 221 236 221 229 283 299 280 284 265 278 268 328 328 95 18 230 197 228 247 254 239 191 195 200 204 213 211 198 196 200 208
191 194 190 193 192 180 193 190 198 199 203 205 223 226 223 222 231 260 250 257 278 263 201 244 287 13 86 357 329 217 222 211 234 222 183 245 244 217 229 210 209 209 215
194 189 192 193 188 188 196 196 196 205 205 217 220 220 217 209 221 234 234 247 244 248 189 231 4 350 42 101 28 334 231 221 191 217 212 241 266 235 222 203 200 207 226
188 186 189 193 190 192 193 192 200 199 216 222 220 198 206 212 206 213 216 238 244 189 184 195 180 199 46 25 99 357 327 278 207 218 207 219 222 234 239 222 209 205 218
188 185 186 188 190 193 200 190 202 202 215 232 236 211 199 205 195 194 199 239 220 218 209 166 86 69 50 30 15 28 7 350 306 217 239 222 216 227 244 250 234 219 223
191 187 184 186 189 189 195 187 196 205 233 225 231 214 198 206 186 181 190 215 193 210 220 78 104 69 70 53 33 36 23 1 355 32 46 24 9 221 239 242 235 240 235
191 188 187 185 193 183 184 188 203 217 216 223 228 216 199 196 177 183 194 213 199 199 178 155 133 138 110 72 76 20 23 35 32 38 46 77 62 73 109 93 80 357 287
192 192 189 194 190 191 192 198 190 185 201 204 219 223 206 191 190 189 193 199 192 153 167 173 147 117 79 61 118 98 53 359 24 22 19 47 64 50 55 45 49 56 67
201 198 195 196 192 192 194 179 100 90 71 143 208 216 216 199 206 197 191 178 186 166 186 178 166 159 158 17 93 129 126 178 359 1 14 24 63 60 45 53 81 90 82
205 202 203 199 196 194 184 186 197 198 203 209 197 199 205 197 208 194 189 178 184 184 186 182 164 150 140 179 100 76 73 131 150 230 356 345 344 290 325 341 21 120 112
201 198 198 194 195 194 192 195 194 201 205 191 176 191 198 204 208 206 198 175 188 186 192 176 161 173 176 159 169 158 116 86 92 131 190 249 300 263 250 239 222 212 193
205 201 200 195 196 189 192 198 197 203 190 186 180 192 196 206 204 215 195 187 192 179 178 189 170 178 179 173 178 179 165 161 172 149 134 206 239 288 267 237 226 219 217